Weather History for KMTO - October, 2011

Change the Weather History Date:

Tuesday, October 11, 2011

  Actual Average Record
Temperature  
Mean Temperature 68 °F 56 °F  
Max Temperature 81 °F 68 °F - ()
Min Temperature 54 °F 45 °F - ()
Degree Days  
Heating Degree Days 0 9  
Month to date heating degree days 38 86  
Since 1 July heating degree days 147 157  
Cooling Degree Days 3 1  
Month to date cooling degree days 16 13  
Year to date cooling degree days 1307 1051  
Growing Degree Days 18 (Base 50)    
Moisture  
Dew Point 53 °F    
Average Humidity 62    
Maximum Humidity 87    
Minimum Humidity 36    
Precipitation  
Precipitation 0.00 in 0.09 in - ()
Month to date precipitation 0.00 0.95  
Year to date precipitation 26.91 29.92  
Sea Level Pressure  
Sea Level Pressure 29.95 in    
Wind  
Wind Speed 4 mph (SE)    
Max Wind Speed 12 mph    
Max Gust Speed 20 mph    
Visibility 10 miles    
Events      
T = Trace of Precipitation, MM = Missing Value Source: NWS Daily Summary

Daily Weather History Graph

Daily Weather History Graph

Search for Another Location

Airport or City:

Trip Planner

Search our weather history database for the weather conditions in past years. The results will help you decide how hot, cold, wet, or windy it might be!

Date:

Astronomy

Oct. 11, 2011 Rise Set
Actual Time 6:58 AM CDT 6:20 PM CDT
Civil Twilight 6:31 AM CDT 6:47 PM CDT
Nautical Twilight 6:00 AM CDT 7:18 PM CDT
Astronomical Twilight 5:29 AM CDT 7:49 PM CDT
Moon 5:52 PM CDT (10/11) 6:36 AM CDT (10/11)
Length of Visible Light 12h 15m
Length of Day
11h 21m
Full, 100% of the Moon is Illuminated
Oct 11
Full
Oct 11
Full
Oct 19
Last Quarter
Oct 26
New
Nov 2
First Quarter

Hourly Weather History & Observations

Time (CDT) Temp. Dew Point Humidity Pressure Visibility Wind Dir Wind Speed Gust Speed Precip Events Conditions
12:53 AM 57.9 °F 54.0 °F 87% 30.02 in 10.0 mi Calm Calm - N/A   Clear
1:53 AM 55.9 °F 52.0 °F 87% 30.02 in 10.0 mi Calm Calm - N/A   Clear
2:53 AM 55.0 °F 52.0 °F 89% 30.01 in 10.0 mi Calm Calm - N/A   Clear
3:53 AM 57.0 °F 53.1 °F 87% 30.01 in 10.0 mi Calm Calm - N/A   Clear
5:53 AM 57.9 °F 54.0 °F 87% 30.02 in 10.0 mi Calm Calm - N/A   Overcast
6:53 AM 59.0 °F 55.0 °F 87% 30.03 in 10.0 mi Calm Calm - N/A   Overcast
7:53 AM 61.0 °F 55.9 °F 83% 30.03 in 10.0 mi Calm Calm - N/A   Overcast
9:53 AM 73.0 °F 55.9 °F 55% 30.00 in 10.0 mi SSE 3.5 mph - N/A   Clear
10:53 AM 75.9 °F 54.0 °F 46% 29.99 in 10.0 mi Calm Calm - N/A   Clear
11:53 AM 79.0 °F 54.0 °F 42% 29.97 in 10.0 mi Variable 4.6 mph - N/A   Partly Cloudy
12:53 PM 78.1 °F 53.1 °F 42% 29.95 in 10.0 mi East 6.9 mph - N/A   Mostly Cloudy
1:53 PM 81.0 °F 52.0 °F 36% 29.93 in 10.0 mi ENE 8.1 mph - N/A   Mostly Cloudy
3:53 PM 80.1 °F 52.0 °F 38% 29.90 in 10.0 mi SSE 8.1 mph - N/A   Clear
4:53 PM 79.0 °F 51.1 °F 38% 29.89 in 10.0 mi SSE 4.6 mph - N/A   Clear
5:53 PM 75.0 °F 52.0 °F 44% 29.88 in 10.0 mi SE 4.6 mph - N/A   Clear
6:53 PM 70.0 °F 51.1 °F 51% 29.89 in 10.0 mi SE 4.6 mph - N/A   Clear
7:53 PM 66.0 °F 50.0 °F 56% 29.90 in 10.0 mi SE 5.8 mph - N/A   Clear
8:53 PM 66.0 °F 48.9 °F 54% 29.90 in 10.0 mi SE 6.9 mph - N/A   Clear
9:53 PM 64.0 °F 50.0 °F 60% 29.91 in 10.0 mi SE 8.1 mph - N/A   Clear
10:53 PM 63.0 °F 52.0 °F 67% 29.90 in 10.0 mi SE 6.9 mph - N/A   Clear
11:53 PM 61.0 °F 52.0 °F 72% 29.88 in 10.0 mi SSE 6.9 mph - N/A   Clear